TimeMST,TemperatureF,Dew PointF,Humidity,Sea Level PressureIn,VisibilityMPH,Wind Direction,Wind SpeedMPH,Gust SpeedMPH,PrecipitationIn,Events,Conditions,WindDirDegrees,DateUTC
12:53 AM,24.1,19.0,81,29.81,10.0,SW,13.8,-,N/A,,Clear,230,2012-12-14 07:53:00
1:53 AM,25.0,19.0,78,29.80,10.0,SW,13.8,-,N/A,,Clear,220,2012-12-14 08:53:00
2:53 AM,24.1,19.0,81,29.79,10.0,WSW,8.1,-,N/A,,Clear,240,2012-12-14 09:53:00
3:53 AM,27.0,19.0,72,29.76,10.0,SW,10.4,-,N/A,,Clear,230,2012-12-14 10:53:00
4:53 AM,23.0,17.6,80,29.67,10.0,SSW,10.4,-,N/A,,Clear,200,2012-12-14 11:53:00
5:53 AM,24.1,19.0,81,29.77,10.0,SSW,3.5,-,N/A,,Clear,200,2012-12-14 12:53:00
6:53 AM,21.9,18.0,85,29.76,10.0,Calm,Calm,-,N/A,,Partly Cloudy,0,2012-12-14 13:53:00
7:53 AM,25.0,19.0,78,29.77,10.0,SSW,5.8,-,N/A,,Partly Cloudy,200,2012-12-14 14:53:00
8:53 AM,21.9,17.1,82,29.78,10.0,SSW,9.2,-,N/A,,Scattered Clouds,210,2012-12-14 15:53:00
9:53 AM,28.0,21.0,75,29.75,10.0,SSW,8.1,-,N/A,,Scattered Clouds,200,2012-12-14 16:53:00
10:53 AM,36.0,24.1,62,29.73,10.0,North,4.6,-,N/A,,Scattered Clouds,10,2012-12-14 17:53:00
11:53 AM,37.9,24.1,57,29.70,10.0,NW,3.5,-,N/A,,Scattered Clouds,320,2012-12-14 18:53:00
12:53 PM,35.1,24.1,64,29.68,10.0,Calm,Calm,-,N/A,,Scattered Clouds,0,2012-12-14 19:53:00
1:53 PM,36.0,25.0,64,29.66,10.0,SW,3.5,-,N/A,,Mostly Cloudy,220,2012-12-14 20:53:00
2:53 PM,36.0,26.1,67,29.67,10.0,SSW,5.8,-,N/A,,Overcast,210,2012-12-14 21:53:00
3:53 PM,37.9,28.0,68,29.66,10.0,NW,3.5,-,N/A,,Overcast,310,2012-12-14 22:53:00
4:53 PM,35.1,26.1,70,29.69,10.0,SW,6.9,-,N/A,,Overcast,230,2012-12-14 23:53:00
5:53 PM,34.0,25.0,70,29.70,10.0,West,3.5,-,N/A,,Mostly Cloudy,270,2012-12-15 00:53:00
6:53 PM,33.1,27.0,78,29.72,10.0,NW,9.2,-,N/A,,Mostly Cloudy,310,2012-12-15 01:53:00
7:53 PM,33.1,27.0,78,29.75,10.0,NW,6.9,-,N/A,,Mostly Cloudy,320,2012-12-15 02:53:00
8:53 PM,32.0,27.0,82,29.77,10.0,West,4.6,-,N/A,,Overcast,270,2012-12-15 03:53:00
9:53 PM,32.0,27.0,82,29.76,10.0,SW,4.6,-,N/A,,Overcast,220,2012-12-15 04:53:00
10:53 PM,32.0,26.1,79,29.76,10.0,NW,12.7,-,N/A,,Overcast,320,2012-12-15 05:53:00
11:53 PM,32.0,28.0,85,29.78,10.0,NNW,10.4,-,N/A,,Overcast,330,2012-12-15 06:53:00